Location: ??????
(56.0120°N, 39.1740°E)
Time: 08:39:54
(UTC+00:00)

SL-16 R/B - Pass Details

Date: 14 April 2026
Orbit: 841 x 845 km, 71.0° (Epoch: 9 May)

Event Time Altitude Azimuth Distance (km) Brightness Sun altitude
Rises 18:13:43 0° 261° (W) 3,402 6.0 -13.5°
Reaches altitude 10° 18:16:33 10° 273° (W) 2,470 5.4 -13.8°
Maximum altitude 18:21:20 27° 331° (NNW) 1,573 4.4 -14.3°
Drops below altitude 10° 18:26:08 10° 29° (NNE) 2,479 4.8 -14.8°
Sets 18:28:59 0° 41° (NE) 3,416 5.4 -15.1°
